Main page
METAR-TAF:

METAR-TAF

Airports :

Defence School of Transport

Leconfield, England

latitude: 53-52-37N, longitude: 0-26-15W, elevation: 7 m

Current weather observation

The report was made 1 hour and 5 minutes ago, at 22:50 UTC
Wind 7 kt from the West/Northwest
Temperature 15°C
Humidity 94%
Pressure 1003 hPa
Visibility 10 km or more

METAR: EGXV 302250Z AUTO 30007KT 9999 BKN050/// 15/14 Q1003 RERA

Time: 00:55 (23:55 UTC)


TAF: missing

Weather observations and forecasts of more than 4000 airports (METAR and TAF reports).

The available stations are represented by yellow and red dots on the map.

Hover mouse over dot to see the name of the station.

Then click to see weather observations and forecasts.

To change the map : click on the green buttons with a black cross to zoom in, on the green button with a dash to zoom out, or on the green arrows for adjacent maps.


METAR-TAF: